Terminal Aerodrome Forecast
Issued by NWS Charleston, WV

Home | Current Version | Previous Version | Text Only | Print | Product List | Glossary On
Versions: 1 2 3 4 5 6 7 8 9 10 11 12 13 14 15 16 17 18 19 20 21 22 23 24 25 26 27 28 29 30 31 32 33 34 35 36 37 38 39 40 41 42 43 44 45 46 47 48
000
FTUS41 KRLX 102009 AAK
TAFEKN
TAF AMD
KEKN 102009Z 1020/1118 23005KT P6SM SKC
     FM110600 00000KT 6SM BR FEW150
     FM110700 00000KT 1SM BR FEW001
     FM110800 00000KT 1/4SM FG FEW001
     FM111300 00000KT 4SM BR SCT090
     FM111700 26004KT P6SM SCT100=

USA.gov is the U.S. government's official web portal to all federal, state and local government web resources and services.